Regional Weather Roundup
Issued by NWS

Home | Current Version | Previous Version | Text Only | Print | Product List | Glossary Off
Versions: 1 2 3 4 5 6 7 8 9 10 11 12 13 14 15 16 17 18 19 20 21 22 23 24 25 26 27 28 29 30 31 32 33 34 35 36 37 38 39 40 41 42 43 44 45 46 47 48 49 50

090
ASUS43 KMKX 231600
RWRWI

WISCONSIN REGIONAL WEATHER ROUNDUP
NATIONAL WEATHER SERVICE MILWAUKEE/SULLIVAN WI
1100 AM CDT SAT JUL 23 2016

NOTE: "FAIR" INDICATES FEW OR NO CLOUDS BELOW 12,000 FEET WITH NO
SIGNIFICANT WEATHER AND/OR OBSTRUCTIONS TO VISIBILITY.

WIZ001-002-006>008-014>016-023>028-231700-
NORTHWEST WISCONSIN

CITY           SKY/WX    TMP DP  RH WIND       PRES   REMARKS
SUPERIOR ARPT  MOSUNNY   73  62  67 NE10      29.91F
ASHLAND        CLOUDY    78  68  71 N8        29.94F HX  80
HAYWARD        CLOUDY    81  63  54 SE9       29.95R HX  82
SIREN          CLOUDY    81  66  61 SE8       29.92F HX  83
CUMBERLAND     CLOUDY    77  66  69 SE9       29.93S
RICE LAKE      CLOUDY    79  68  68 E9        29.94S HX  82
CHETEK         CLOUDY    80  71  72 SE7       29.94R HX  84
LADYSMITH      CLOUDY    84  68  58 SE7       29.98R HX  87
EAU CLAIRE     NOT AVBL
MENOMONIE      CLOUDY    79  69  70 SE7       29.97R HX  82
NEW RICHMOND   CLOUDY    78  66  66 SE7       29.91F HX  80
OSCEOLA        CLOUDY    79  67  67 SE13      29.92F HX  81
$$

WIZ003>005-009-010-017-018-231700-
NORTH CENTRAL WISCONSIN

CITY           SKY/WX    TMP DP  RH WIND       PRES   REMARKS
MANITOWISH WTR SUNNY     80  63  54 E6        29.98F HX  82
ARBOR VITAE    SUNNY     82  58  43 E6        29.99F HX  82
WOODRUFF       SUNNY     82  58  43 E6        29.99F HX  82
RHINELANDER    SUNNY     83  57  41 SE9       30.02R HX  82
EAGLE RIVER    SUNNY     81  57  42 E5        30.00F HX  81
LAND O LAKES   SUNNY     82  57  41 SE6       30.01F HX  82
PHILLIPS       CLOUDY    82  64  55 SE7       29.97S HX  83
TOMAHAWK       CLOUDY    82  61  49 CALM      30.01R HX  82
MEDFORD        CLOUDY    79  68  68 SE6       30.00R HX  81
MERRILL        CLOUDY    83  64  53 S8        30.01R HX  84
$$

WIZ029-030-035-036-043>047-231700-
CENTRAL WISCONSIN

CITY           SKY/WX    TMP DP  RH WIND       PRES   REMARKS
WAUSAU         MOSUNNY   84  64  50 S6        29.99R HX  85
MOSINEE        SUNNY     82  68  61 SE5       30.01R HX  85
MARSHFIELD     CLOUDY    84  69  60 S10       30.01R HX  88
STEVENS POINT  CLOUDY    82  67  60 SE6       29.99F HX  85
WAUPACA        MOSUNNY   86  67  52 E7        29.97F HX  89
WAUTOMA        CLOUDY    84  70  62 E6        30.00S HAZE    HX  88
WISC RAPIDS    CLOUDY    86  65  49 S6        30.01R HX  88
CAMP DOUGLAS   NOT AVBL
$$

WIZ011>013-019>022-031-037>040-048>050-231700-
NORTHEAST WISCONSIN

CITY           SKY/WX    TMP DP  RH WIND       PRES   REMARKS
ANTIGO         CLOUDY    82  61  49 SE8       30.02R HX  82
SHAWANO        SUNNY     85  63  46 E5        29.99R HX  86
OCONTO         SUNNY     81  66  60 E6        29.97S HX  83
STURGEON BAY   SUNNY     84  67  56 SE6       29.98F HX  86
GREEN BAY      SUNNY     84  71  65 SE6       29.98S HX  89
MANITOWOC      NOT AVBL
APPLETON       MOSUNNY   84  61  45 SE9       29.97R HX  84
CLINTONVILLE   CLOUDY    84  63  48 SE7       29.98S HX  85
OSHKOSH        CLOUDY    83  69  62 E6        29.97F HX  86
$$

WIZ032>034-041-042-053>061-231700-
SOUTHWEST WISCONSIN

CITY           SKY/WX    TMP DP  RH WIND       PRES   REMARKS
LA CROSSE      LGT RAIN  73  71  93 S6        29.96S
SPARTA         CLOUDY    78  75  91 E3        29.97R HX  80
VIROQUA        CLOUDY    70  70 100 E9        30.01R
BOSCOBEL       TSTM      73  69  87 S5        29.99F
PRAIRIE DU CHI LGT RAIN  72  70  95 E8        29.98R
PLATTEVILLE    PTSUNNY   78  78 100 N6        30.00S HX  82
$$

WIZ056-057-062-063-064-067-068-231700-
SOUTH CENTRAL WISCONSIN

CITY           SKY/WX    TMP DP  RH WIND       PRES   REMARKS
REEDSBURG      LGT RAIN  77  77 100 CALM      30.00R
BARABOO/DELLS  CLOUDY    78  76  93 CALM      30.00S FOG     HX  80
LONE ROCK      HVY RAIN  79  77  94 W9        30.00R FOG     HX  83
MINERAL POINT  LGT RAIN  79  79 100 CALM      30.02R HX  83
MADISON        CLOUDY    81  77  88 W3        29.99S HX  88
MIDDLETON      CLOUDY    82  78  90 CALM      30.00F HX  91
WATERTOWN      CLOUDY    79  79 100 E3        29.98F HX  84
MONROE         CLOUDY    81  77  89 SE3       30.00S HX  88
JANESVILLE     PTSUNNY   84  75  74 SE5       29.98S HX  92
$$

WIZ051-052-058>065-066-070>072-231700-
SOUTHEAST WISCONSIN

CITY           SKY/WX    TMP DP  RH WIND       PRES   REMARKS
MILWAUKEE      CLOUDY    88  74  63 SE7       29.98R HX  96
WAUKESHA       MOSUNNY   86  66  51 CALM      30.00R HX  88
MILWAUKEE/TIMM MOSUNNY   88  68  51 SE6       29.98S HX  91
RACINE         CLOUDY    87  76  69 E7        30.00R HX  97
BURLINGTON     CLOUDY    86  76  70 S3        29.99R HX  96
KENOSHA        CLOUDY    87  77  72 E9        29.99R HX  99
FOND DU LAC    CLOUDY    86  70  58 CALM      29.98S HX  90
SHEBOYGAN      MOSUNNY   85  69  58 NE9       29.99S HX  89
WEST BEND      CLOUDY    86  70  58 E5        29.99R HX  90
JUNEAU         CLOUDY    82  78  87 SW5       30.00F HX  90
$$

LSZ147-162-231700-
LAKE SUPERIOR

STATION/POSITION TIME  TEMP    WIND        PRES    WAVE
                       AIR SEA DIR/SP/G            HT/PER
                 (UTC) (F)     (DEG/KT/KT) (MB)    (FT/S)
W MID LAKE BUOY  1450   62 58   90/  8/ 10 1015.7R   0
DEVILS ISLAND    1500   63      40/  6/  7 1014.7F
SAXON HARBOR     1540   72     360/  3/  3 1013.5F
$$

LMZ867-665-643>646-231700-
LAKE MICHIGAN

STATION/POSITION TIME  TEMP    WIND        PRES    WAVE
                       AIR SEA DIR/SP/G            HT/PER
                 (UTC) (F)     (DEG/KT/KT) (MB)    (FT/S)
CHAMBERS ISLAND  1500   75      10/  5/  6 1015.2F
S GREEN BAY BUOY 1500   74 74   50/  8/ 10   N/A
N MID LAKE BUOY  1450   70 69   10/  4/  6 1015.0R   1
NORTHPORT PIER   1500   73     330/  4/  6 1015.6S
KEWAUNEE LAKESHO 1500   75      40/  3/  4 1015.0F
SHEBOYGAN LAKESH 1500   72     360/  2/  2 1015.2F
PORT WASHINGTON  1500   70      60/  3/  5 1015.9
MILWAUKEE LAKESH 1510   74     230/  1/  1   N/A
S MID LAKE BUOY  1450   77 76  190/  2/  2 1014.5F   0
KENOSHA   LAKESH 1500   81     130/  3/  3 1014.9F
$$

TC  - TEMPERATURE IN CELSIUS
VSB - VISIBILITY IN STATUTE MILES
WCI - WIND CHILL INDEX
HX  - HEAT INDEX





USA.gov is the U.S. government's official web portal to all federal, state and local government web resources and services.